カタログに戻る

STARLINK-3310

運用中通信VLEO
NORAD 50835·PAYLOAD·🇺🇸 United States

打ち上げ Jan 6, 2022 から Cape Canaveral Space Force Station

Loading…

次のパス (今後24時間)

TLE

最新Source: CelesTrak SupGP

元期: Sep 15, 2026, 02:48 UTC

1 50835C 22001AJ  26258.11715278 -.00014617  00000+0 -81436-3 0  2584
2 50835  53.2145  46.6394 0002052 114.2677 123.9062 15.13117313    12

AllMySatでSTARLINK-3310をリアルタイム追跡

Download on the App Store